STARLINK-32668 (62212 NORAD) Tracking and Keplerian Element Data

This shows tracking and keplerian element data for the satellite.

Feedback or suggestion? Click here.




ElementValue
Catalog62212
NameSTARLINK-32668
Epoch Orbit1054
Epoch Day34.6293572
Epoch Year2025
RAAN5.8302
Inclination43.005
Eccentricity9.41E-05
Argument of Perigee296.7855
Mean Anonmoly63.2902
Mean Motion15.3208017
Decay Rate-2.278E-05
L11 62212U 24229W 25034.62935720 -.00002278 00000+0 -63357-4 0 9998
L22 62212 43.0050 5.8302 0000941 296.7855 63.2902 15.32080170 10540



Live tracking and technical data element details for STARLINK-32668 (NORAD 62212). STARLINK-32668 can be tracked NOW for your location showing map with azimuth and elevation plus other details from your city location.







IsCatalogInMostPopularTable: catalog: 62212, numindb: 14
Update: records affected: 1



GetName: 62212 STARLINK-32668

Hit Count: updated at: Sat, 24 May 2025 16:37:55 GMT